This is the latest recevied weather packets stored in our database for station/object K0GDI. If no packets are shown the sender has not sent any weather packets the latest 10 day(s).
| Time | Temp. | Humidity | Pressure | Rain* | Wind** | Luminosity | Snow |
|---|---|---|---|---|---|---|---|
| 1788078755 | 17.22° C | 95% | 1017.2 hPa | 0 mm | 0.45 m/s, 177° | - | - |
| 1788078154 | 17.22° C | 96% | 1017.2 hPa | 0 mm | 0.45 m/s, 165° | - | - |
| 1788077553 | 16.67° C | 96% | 1017.2 hPa | 0 mm | 0.45 m/s, 109° | - | - |
| 1788076952 | 16.67° C | 96% | 1016.8 hPa | 0 mm | 0.45 m/s, 278° | - | - |
| 1788076352 | 17.22° C | 96% | 1016.8 hPa | 0 mm | 0.45 m/s, 309° | - | - |
| 1788075751 | 17.22° C | 96% | 1016.8 hPa | 0 mm | 0 m/s | - | - |
| 1788075150 | 17.22° C | 96% | 1016.8 hPa | 0 mm | 0.45 m/s, 355° | - | - |
| 1788074549 | 17.22° C | 95% | 1016.8 hPa | 0 mm | 0 m/s | - | - |
| 1788073948 | 17.22° C | 95% | 1016.8 hPa | 0 mm | 0.45 m/s, 267° | - | - |
| 1788073347 | 17.78° C | 94% | 1016.8 hPa | 0 mm | 0 m/s | - | - |
| 1788072746 | 17.78° C | 93% | 1016.8 hPa | 0 mm | 0.45 m/s, 309° | - | - |
| 1788072145 | 17.78° C | 93% | 1016.8 hPa | 0 mm | 0.45 m/s, 304° | - | - |
| 1788071544 | 18.33° C | 93% | 1016.8 hPa | 0 mm | 0.45 m/s, 316° | - | - |
| 1788070943 | 18.33° C | 94% | 1016.8 hPa | 0 mm | 0 m/s | - | - |
| 1788070342 | 18.33° C | 93% | 1016.8 hPa | 0 mm | 0 m/s | - | - |
| 1788069744 | 18.33° C | 92% | 1016.8 hPa | 0 mm | 0.45 m/s, 58° | - | - |
| 1788069141 | 18.89° C | 90% | 1016.8 hPa | 0 mm | 0.45 m/s, 54° | - | - |
| 1788068540 | 19.44° C | 88% | 1016.8 hPa | 0 mm | 0.45 m/s, 290° | - | - |
| 1788067939 | 20° C | 87% | 1016.8 hPa | 0 mm | 0 m/s | - | - |
| 1788067338 | 20° C | 86% | 1016.8 hPa | 0 mm | 0.45 m/s, 162° | - | - |
| 1788066738 | 20.56° C | 83% | 1016.8 hPa | 0 mm | 0.45 m/s, 172° | - | - |
| 1788066137 | 21.11° C | 83% | 1016.8 hPa | 0 mm | 0.45 m/s, 178° | - | - |
| 1788065537 | 21.11° C | 82% | 1016.8 hPa | 0 mm | 0.89 m/s, 166° | - | - |
| 1788064936 | 21.67° C | 81% | 1016.8 hPa | 0 mm | 0.89 m/s, 164° | - | - |
| 1788064335 | 21.11° C | 81% | 1016.8 hPa | 0 mm | 0.89 m/s, 155° | - | - |
* Rain latest hour (hover to see other rain measurements)
** Current wind speed in m/s (hover to see current wind gust speed)